Flag for U.S.A. Weather past 2 weeks in New Haven, Connecticut, U.S.A.

Now
55 °F

Mostly cloudy.


Feels Like: 54 °F
Forecast: 53 / 73 °F
Wind: 6 mph from Northeast

Location: Tweed-New Haven Airport

Current Time: Sep 20, 2014 at 6:39:13 AM

Latest Report: Sep 20, 2014 at 5:53 AM


Visibility: 10 mi

Pressure: 30.34 "Hg

Humidity: 77%

Dew point: 48 °F

Location of New HavenLocation

Historic Weather in New Haven — Graph

°F

New Haven temperature yesterday

Maximum temperature yesterday: 64 °F (at 2:53 PM)
Minimum temperature yesterday: 51 °F (at 6:53 AM)
Average temperature yesterday: 59 °F

Past Weeks' High & Low Weather Summary

 TemperatureHumidityPressure
High87 °F (Sep 6, 2:53 PM)94% (Sep 6, 6:53 AM)30.40 "Hg (Sep 6, 6:53 AM)
Low48 °F (Sep 17, 6:53 AM)31% (Sep 18, 4:53 PM)29.81 "Hg (Sep 6, 4:53 PM)
Average66 °F67%30.11 "Hg
* Reported Sep 5 4:53 AM — Sep 20 4:53 AM, New Haven, Weather by CustomWeather, © 2014

Note: Actual official high and low records may vary slightly from our data, if they occured in-between our weather recording intervals... More about our weather records

Advertising

New Haven weather history for previous 24 hours

 ConditionsComfort  
Time TempWeatherWind HumidityBarometerVisibility
4:53 AM
Sep 20
56 °FPassing clouds.6 mph75%30.34 "Hg10 mi
3:53 AM56 °FMostly cloudy.7 mph72%30.35 "Hg10 mi
2:53 AM62 °FMostly cloudy.6 mph67%30.34 "Hg10 mi
1:53 AM62 °FMostly cloudy.10 mph65%30.34 "Hg10 mi
12:53 AM61 °FMostly cloudy.12 mph62%30.37 "Hg10 mi
11:53 PM
Sep 19
60 °FPassing clouds.8 mph60%30.38 "Hg10 mi
10:53 PM59 °FPassing clouds.7 mph56%30.40 "Hg10 mi
9:53 PM59 °FClear.9 mph56%30.40 "Hg10 mi
8:53 PM59 °FClear.8 mph58%30.40 "Hg10 mi
7:53 PM59 °FSunny.5 mph54%30.38 "Hg10 mi
6:53 PM60 °FSunny.6 mph52%30.37 "Hg10 mi
5:53 PM63 °FSunny.6 mph45%30.36 "Hg10 mi
4:53 PM64 °FPassing clouds.8 mph43%30.36 "Hg10 mi
3:53 PM64 °FPassing clouds.12 mph43%30.36 "Hg10 mi
2:53 PM64 °FPassing clouds.9 mph41%30.37 "Hg10 mi
1:53 PM63 °FPassing clouds.8 mph43%30.36 "Hg10 mi
12:53 PM62 °FSunny.No wind41%30.36 "Hg10 mi
11:53 AM61 °FPassing clouds.8 mph42%30.36 "Hg10 mi
10:53 AM60 °FPassing clouds.8 mph46%30.36 "Hg10 mi
9:53 AM57 °FScattered clouds.13 mph51%30.35 "Hg10 mi
8:53 AM55 °FScattered clouds.12 mph55%30.34 "Hg10 mi
7:53 AM51 °FScattered clouds.14 mph63%30.31 "Hg10 mi
6:53 AM51 °FPassing clouds.12 mph63%30.29 "Hg10 mi
Weather by CustomWeather, © 2014

See weather overviewHow to use our weather pages